Find Starlink 30615

NORAD ID: 58092 Int'l Des: 2023-160 Owner: SPXS Country: US Constellation: starlink operational
LEOCIRCULAR

現在のビュー

3D地球を読み込み中...

About Starlink 30615

Starlink 30615 (NORAD 58092) is a starlink constellation satellite (v2 mini) launched Oct 18, 2023 by SPXS of US. It operates in LEO, CIRCULAR orbit with a mass of 730.00 kg.

Starlink 30615について

説明を読み込み中...

次回通過

Passes for default location (London). Set your location on the main map for personalized predictions.

高度履歴

Loading altitude history...

軌道要素

1 58092U 23160T 26189.94050817 .00000997 00000-0 45749-4 0 9994
2 58092 43.0016 113.6246 0001572 257.7789 102.2887 15.27580040151482
Epoch: Jul 8, 2026 • Age: 43 hours

現在のステータス

高度 486.4 km
遠地点 / 近地点 N/A
速度 7.63 km/s
衛星直下点 39.32°N, 32.56°E
打ち上げ日 Oct 18, 2023
運用期間 2.7 years
タイプ internet

技術仕様

分類 Payload
質量 730.00 kg
乾燥質量 700.00 kg
総質量 730.00 kg
長さ 0.30 m
直径 4.10 m
スパン 29.00 m
形状 Box + pan
製造者 SPXS
バスタイプ Starlink V2M
フェーズステータス In Orbit
所有者/国 SPXS/US

Most Searched